TimeMDT,TemperatureF,Dew PointF,Humidity,Sea Level PressureIn,VisibilityMPH,Wind Direction,Wind SpeedMPH,Gust SpeedMPH,PrecipitationIn,Events,Conditions,WindDirDegrees,DateUTC
12:53 AM,37.9,26.1,62,30.30,10.0,SSE,9.2,-,N/A,,Clear,160,2012-10-12 06:53:00
2:53 AM,36.0,26.1,67,30.25,10.0,SSE,15.0,23.0,N/A,,Clear,160,2012-10-12 08:53:00
3:53 AM,37.0,26.1,65,30.19,10.0,South,21.9,31.1,N/A,,Clear,170,2012-10-12 09:53:00
4:53 AM,37.0,26.1,65,30.19,9.0,South,20.7,29.9,N/A,,Clear,180,2012-10-12 10:53:00
5:39 AM,37.4,26.6,65,30.15,7.0,SSE,5.8,-,N/A,,Mostly Cloudy,160,2012-10-12 11:39:00
5:53 AM,37.0,25.0,62,30.20,5.0,South,8.1,-,N/A,,Haze,190,2012-10-12 11:53:00
6:27 AM,37.4,24.8,60,30.12,5.0,South,19.6,-,N/A,,Haze,180,2012-10-12 12:27:00
6:39 AM,37.4,24.8,60,30.13,4.0,South,17.3,26.5,N/A,,Haze,190,2012-10-12 12:39:00
6:53 AM,37.9,24.1,57,30.18,5.0,South,16.1,-,N/A,,Haze,190,2012-10-12 12:53:00
7:23 AM,37.4,24.8,60,30.11,3.0,SSW,15.0,-,N/A,,Haze,200,2012-10-12 13:23:00
7:53 AM,37.0,25.0,62,30.18,6.0,SW,10.4,-,N/A,,Haze,220,2012-10-12 13:53:00
8:35 AM,41.0,26.6,57,30.08,6.0,SSW,15.0,-,N/A,,Haze,210,2012-10-12 14:35:00
8:53 AM,41.0,26.1,55,30.15,5.0,SW,8.1,-,N/A,,Haze,220,2012-10-12 14:53:00
9:53 AM,46.9,28.0,48,30.12,3.0,SSW,11.5,-,N/A,,Haze,210,2012-10-12 15:53:00
10:13 AM,50.0,28.4,43,30.04,2.5,SSW,21.9,27.6,N/A,,Haze,200,2012-10-12 16:13:00
11:02 AM,53.6,30.2,41,30.01,3.0,SSW,16.1,25.3,N/A,,Haze,210,2012-10-12 17:02:00
11:53 AM,57.9,32.0,37,29.99,4.0,SSW,20.7,-,N/A,,Haze,200,2012-10-12 17:53:00
12:53 PM,62.1,33.1,34,29.94,6.0,SSW,17.3,-,N/A,,Haze,210,2012-10-12 18:53:00
1:53 PM,64.9,34.0,32,29.89,7.0,South,16.1,-,N/A,,Clear,190,2012-10-12 19:53:00
2:53 PM,68.0,35.1,30,29.86,6.0,South,19.6,25.3,N/A,,Haze,190,2012-10-12 20:53:00
3:53 PM,66.9,36.0,32,29.83,6.0,South,21.9,-,N/A,,Haze,190,2012-10-12 21:53:00
4:53 PM,66.0,37.0,34,29.81,7.0,SSW,16.1,25.3,N/A,,Clear,200,2012-10-12 22:53:00
5:53 PM,63.0,36.0,37,29.78,8.0,SSW,9.2,-,N/A,,Clear,200,2012-10-12 23:53:00
6:53 PM,57.0,36.0,45,29.79,8.0,South,5.8,-,N/A,,Clear,180,2012-10-13 00:53:00
8:53 PM,57.9,39.0,49,29.81,8.0,South,13.8,-,N/A,,Clear,190,2012-10-13 02:53:00
9:53 PM,55.0,37.9,53,29.80,9.0,SSW,11.5,-,N/A,,Clear,200,2012-10-13 03:53:00
10:53 PM,52.0,37.0,57,29.78,9.0,SSW,10.4,-,N/A,,Clear,200,2012-10-13 04:53:00
11:53 PM,53.1,37.9,57,29.74,9.0,SSW,9.2,-,N/A,,Clear,200,2012-10-13 05:53:00